Regional Weather Roundup
Issued by NWS State College, PA

Home | Current Version | Previous Version | Graphics & Text | Print | Product List | Glossary Off
Versions: 1 2 3 4 5 6 7 8 9 10 11 12 13 14 15 16 17 18 19 20 21 22 23 24 25 26 27 28 29 30 31 32 33 34 35 36 37 38 39 40 41 42 43 44 45 46 47 48 49 50

000
ASUS41 KCTP 270603
RWRCTP

REGIONAL WEATHER ROUNDUP
NATIONAL WEATHER SERVICE STATE COLLEGE PA
200 AM EDT SAT AUG 27 2016

Note: "fair" indicates few or no clouds below 12,000 feet with no
significant weather and/or obstructions to visibility.

* = STATION THAT DOES NOT REPORT PRECIPITATION /E.G. RAIN...SNOW...ETC/
    THUNDER OR FOG.

PAZ002>004-007>009-013>016-020>023-029>032-270700-
WESTERN PENNSYLVANIA

CITY           SKY/WX    TMP DP  RH WIND       PRES   REMARKS
ERIE           NOT AVBL
MEADVILLE      FAIR      61  57  87 E5        30.19F
FRANKLIN*        N/A     61  57  88 CALM      30.20F
NEW CASTLE     FAIR      62  61  96 CALM      30.18F
BEAVER COUNTY  NOT AVBL
BUTLER*        NOT AVBL
PITTSBURGH INT CLEAR     73  61  65 CALM      30.17S
PITTSBURGH     CLEAR     72  61  68 NE3       30.16F
INDIANA*       CLEAR     64  63  94 CALM      30.22S
LATROBE        CLEAR     64  64 100 CALM      30.19R
WASHINGTON CO* CLEAR     64  63  94 CALM      30.17F
$$

PAZ004>006-010>012-017>019-024>028-033>037-041-042-045-046-049>053-270700-
CENTRAL PENNSYLVANIA

CITY           SKY/WX    TMP DP  RH WIND       PRES   REMARKS
BRADFORD         N/A     56  56 100 CALM      30.23S
DUBOIS         FAIR      64  60  87 E5        30.20F
CLEARFIELD     FAIR      64  63  96 CALM      30.20F
JOHNSTOWN      CLEAR     69  60  73 CALM      30.23S
ALTOONA        CLEAR     63  62  97 S3        30.19F
STATE COLLEGE  FAIR      67  64  88 CALM      30.18S
WILLIAMSPORT   FAIR      68  64  87 CALM      30.14F
SELINSGROVE    CLEAR     66  66 100 NW3       30.15R
FT INDIANTOWN  CLEAR     66  65  97 CALM      30.11F
CAPITAL CITY   CLEAR     71  66  84 SW5       30.11S
HARRISBURG     CLEAR     74  70  87 NW3       30.10F
YORK           CLEAR     65  63  93 CALM      30.12S
$$

PAZ038>040-043-044-047-048-054-055-060>062-067>071-270700-
EASTERN PENNSYLVANIA

CITY           SKY/WX    TMP DP  RH WIND       PRES   REMARKS
SCRANTON       FAIR      66  62  87 E3        30.17R
MOUNT POCONO   FAIR      61  58  90 CALM      30.19S
ALLENTOWN      CLEAR     69  62  78 CALM      30.12S
QUAKERTOWN*    CLEAR     64  63  94 CALM      30.13S
READING        CLEAR     71  66  84 CALM      30.10F
LANCASTER      CLEAR     72  66  81 CALM      30.11S
COATESVILLE    CLEAR     72  64  78 CALM      30.14S
POTTSTOWN      CLEAR     68  65  90 CALM      30.13S
BLUE BELL      CLEAR     63  63 100 CALM      30.10S
DOYLESTOWN     CLEAR     72  64  76 CALM      30.10S
WILLOW GROVE   NOT AVBL
NORTH PHILA    CLEAR     73  65  75 NE3       30.11S
PHILADELPHIA   CLEAR     78  66  66 NW5       30.10S
$$




USA.gov is the U.S. government's official web portal to all federal, state and local government web resources and services.